Location: Indian Springs
(36.5700°N, 115.6700°W)
Time: 19:19:39
(UTC-07:00)

Amateur Radio Satellites - All Passes

Search period start: 30 April 2016 18:49
Search period end: 01 May 2016 18:49
Location: Indian Springs, 36.5700°N, 115.6700°W

Satellite Date Start Highest point End Downlink Frequencies (MHz)
Time Altitude Azimuth
AUBIESAT-1 30 Apr 18:53:01 18:57:41 81° 254° (WSW) 19:02:20 437.475
BEESAT 3 30 Apr 18:55:32 18:59:27 80° 120° (ESE) 19:03:25 437.485
LilacSat-2 30 Apr 18:58:16 19:01:37 27° 263° (W) 19:04:59 437.200
BEESAT 2 30 Apr 18:58:16 19:02:04 46° 116° (ESE) 19:05:55 435.950
STRAND 1 30 Apr 19:01:20 19:05:09 21° 95° (E) 19:08:56 437.568
CUTE 1.7 + AOD 2 30 Apr 19:07:21 19:09:53 16° 67° (ENE) 19:12:25 437.475
HO-68 30 Apr 19:11:22 19:17:46 37° 65° (ENE) 19:24:11 435.675
Cosmos 2504 30 Apr 19:14:23 19:18:20 15° 81° (E) 19:22:12 435.465 / 435.565
NOAA 18 30 Apr 19:17:48 19:21:38 19° 266° (W) 19:25:27 137.9125
JUGNU 30 Apr 19:23:09 19:26:01 14° 173° (S) 19:28:52 437.505
CUTE-I 30 Apr 19:25:10 19:29:07 21° 266° (W) 19:33:05 437.470
CINEMA 3 30 Apr 19:29:42 19:34:10 34° 71° (ENE) 19:38:41 145.822/145.860
SEEDS 30 Apr 19:37:58 19:41:23 25° 71° (ENE) 19:44:49 437.485
COMPASS 1 30 Apr 19:46:00 19:49:12 22° 70° (ENE) 19:52:24 437.405
Cosmos 2491 30 Apr 19:47:42 19:55:01 31° 276° (W) 20:02:19 435.465 / 435.565
RS-15 30 Apr 19:54:30 19:59:54 15° 96° (E) 20:05:23 29.354- 29.394
YUBILEINY 30 Apr 19:55:40 20:04:14 58° 281° (W) 20:12:48 435.215
GOMX 1 30 Apr 19:59:23 20:02:57 20° 268° (W) 20:06:41 467.674
DOVE 4 30 Apr 20:06:09 20:10:39 34° 264° (W) 20:15:22 437.250
CANX-2 30 Apr 20:07:50 20:12:04 85° 255° (WSW) 20:16:18 2200.000
M-CUBED/EXP-1 PRIME 30 Apr 20:10:42 20:11:42 11° 265° (W) 20:12:42 437.505
AIST 2 30 Apr 20:11:35 20:14:28 19° 110° (ESE) 20:17:22 435.215
AAUSAT CUBESAT 2 30 Apr 20:18:23 20:22:16 42° 74° (ENE) 20:26:10 437.432
Oscar 11 30 Apr 20:18:57 20:21:49 18° 68° (ENE) 20:24:43 145.826/435.025
FUNcube-1 30 Apr 20:26:50 20:29:59 19° 68° (ENE) 20:33:07 145.935
UWE-3 30 Apr 20:30:38 20:34:47 33° 72° (ENE) 20:38:54 435.000/436.395/437.385
CUBEBUG 2 30 Apr 20:32:38 20:37:14 50° 74° (ENE) 20:41:48 437.445
BEESAT 2 30 Apr 20:37:49 20:40:10 15° 312° (NW) 20:42:33 435.950
STRAND 1 30 Apr 20:39:40 20:44:25 40° 289° (WNW) 20:49:09 437.568
CUTE 1.7 + AOD 2 30 Apr 20:41:28 20:45:24 38° 262° (W) 20:49:21 437.475
AO-85 30 Apr 20:49:33 20:50:58 11° 40° (NE) 20:52:20 145.980
HO-68 30 Apr 20:58:47 21:05:22 39° 262° (W) 21:11:58 435.675
Cosmos 2504 30 Apr 21:03:25 21:10:48 75° 278° (W) 21:17:59 435.465 / 435.565
ZACube-1 30 Apr 21:06:19 21:10:46 54° 74° (ENE) 21:15:10 437.345
CINEMA 3 30 Apr 21:07:17 21:11:17 24° 266° (W) 21:15:20 145.822/145.860
PRISM 30 Apr 21:08:27 21:12:38 82° 286° (WNW) 21:16:48 437.425
JUGNU 30 Apr 21:10:59 21:14:13 15° 183° (S) 21:17:29 437.505
SEEDS 30 Apr 21:13:44 21:17:01 22° 265° (W) 21:20:18 437.485
COMPASS 1 30 Apr 21:21:12 21:24:37 25° 264° (W) 21:28:04 437.405
AIST 2 30 Apr 21:48:56 21:52:41 34° 305° (NW) 21:56:29 435.215
DELFI C3 30 Apr 21:50:40 21:54:36 81° 258° (WSW) 21:58:34 145.870
Oscar 11 30 Apr 21:53:43 21:57:39 35° 262° (W) 22:01:38 145.826/435.025
AAUSAT CUBESAT 2 30 Apr 21:56:05 21:57:56 13° 268° (W) 21:59:48 437.432
RS-15 30 Apr 21:58:58 22:10:06 77° 116° (ESE) 22:21:55 29.354- 29.394
FUNcube-1 30 Apr 22:01:45 22:05:56 36° 262° (W) 22:10:07 145.935
ESTCUBE 1 30 Apr 22:02:50 22:03:48 11° 63° (ENE) 22:04:46 437.505/2401.250
SRMSAT 30 Apr 22:06:08 22:09:23 15° 176° (S) 22:12:39 437.500
UWE-3 30 Apr 22:07:42 22:11:14 21° 265° (W) 22:14:47 435.000/436.395/437.385
CUBEBUG 2 30 Apr 22:11:28 22:14:03 15° 268° (W) 22:16:40 437.445
AO-85 30 Apr 22:27:35 22:32:20 83° 60° (ENE) 22:36:36 145.980
HUMSAT D 30 Apr 22:29:36 22:33:50 66° 259° (W) 22:38:02 437.325/437.525
UNISAT 6 30 Apr 22:30:30 22:34:18 29° 97° (E) 22:38:02 437.425
CUBEBUG 1 30 Apr 22:34:42 22:37:30 17° 67° (ENE) 22:40:19 437.445
ZACube-1 30 Apr 22:45:27 22:47:18 12° 268° (W) 22:49:08 437.345
TIGRISAT 30 Apr 22:48:33 22:52:43 45° 99° (E) 22:56:47 435.000
VELOX 1 30 Apr 22:54:51 22:58:39 29° 70° (ENE) 23:02:30 145.980
DX 1 30 Apr 22:59:34 23:03:20 30° 70° (ENE) 23:07:09 434.975-435.025
JUGNU 30 Apr 23:01:48 23:02:25 10° 193° (SSW) 23:03:02 437.505
UKube-1 30 Apr 23:10:08 23:13:56 31° 71° (ENE) 23:17:47 .
ANTELSAT 30 Apr 23:12:24 23:16:46 86° 284° (WNW) 23:21:01 437.575/2403.000
AISAT 30 Apr 23:25:55 23:30:20 72° 75° (ENE) 23:34:47 437.250
QB50P2 30 Apr 23:34:28 23:38:13 30° 97° (E) 23:41:56 145.880/145.840
ESTCUBE 1 30 Apr 23:35:34 23:40:00 67° 258° (WSW) 23:44:29 437.505/2401.250
POLYITAN 1 30 Apr 23:36:35 23:40:21 31° 97° (E) 23:44:05 437.675
DUCHIFAT 1 30 Apr 23:37:19 23:40:58 28° 97° (E) 23:44:34 145.980
POPSAT HIP 1 30 Apr 23:39:45 23:43:35 32° 98° (E) 23:47:23 437.405
QB50P1 30 Apr 23:43:07 23:47:03 36° 98° (E) 23:50:57 145.935-145.965
SPROUT 30 Apr 23:43:59 23:47:56 36° 72° (ENE) 23:51:54 437.525
50 SAT 30 Apr 23:44:12 23:47:47 54° 260° (W) 23:51:23 437.505
GONETS M04 30 Apr 23:44:37 23:51:53 30° 84° (E) 23:59:07
SRMSAT 30 Apr 23:54:45 23:57:46 14° 187° (S) 00:00:46 437.500
O/OREOS (USA 219) 30 Apr 23:59:21 00:01:06 12° 55° (NE) 00:02:51 437.305
UNISAT 6 01 May 00:07:37 00:10:49 20° 292° (WNW) 00:13:58 437.425
CUBEBUG 1 01 May 00:09:23 00:13:27 38° 262° (W) 00:17:35 437.445
RS-15 01 May 00:13:50 00:23:47 33° 320° (NW) 00:34:16 29.354- 29.394
PCSat 01 May 00:17:08 00:20:56 19° 49° (NE) 00:24:41 145.827
AIST 1 01 May 00:18:08 00:22:09 40° 92° (E) 00:26:12
NANOSAT C BR1 01 May 00:18:59 00:23:14 84° 282° (WNW) 00:27:25 145.865
TISAT 1 01 May 00:26:19 00:30:04 32° 71° (ENE) 00:33:52 437.305
TIGRISAT 01 May 00:26:47 00:28:59 14° 295° (WNW) 00:31:09 435.000
BUGSAT 1 01 May 00:28:06 00:32:13 53° 100° (E) 00:36:15 437.445
VELOX 1 01 May 00:31:42 00:35:06 22° 265° (W) 00:38:32 145.980
JAS-2 01 May 00:33:38 00:39:40 24° 92° (E) 00:45:38 435.910
DX 1 01 May 00:36:14 00:39:30 21° 265° (W) 00:42:50 434.975-435.025
UKube-1 01 May 00:46:55 00:50:01 19° 265° (W) 00:53:08 .
ITUPSAT 1 01 May 00:55:11 00:57:18 13° 63° (ENE) 00:59:25 437.325
SWISSCUBE 01 May 01:04:30 01:07:44 19° 66° (ENE) 01:10:59 437.505
QB50P2 01 May 01:10:45 01:13:48 19° 292° (WNW) 01:16:50 145.880/145.840
POLYITAN 1 01 May 01:12:55 01:15:55 19° 292° (WNW) 01:18:55 437.675
DUCHIFAT 1 01 May 01:13:18 01:16:29 21° 291° (WNW) 01:19:37 145.980
Cosmos 2499 01 May 01:16:11 01:23:11 60° 92° (E) 01:30:06 435.465 / 435.565
POPSAT HIP 1 01 May 01:16:11 01:19:06 18° 292° (WNW) 01:22:00 437.405
QB50P1 01 May 01:19:51 01:22:31 17° 293° (WNW) 01:25:11 145.935-145.965
SPROUT 01 May 01:21:14 01:23:59 17° 267° (W) 01:26:45 437.525
Gurwin Techsat 1B 01 May 01:35:10 01:37:36 13° 91° (E) 01:40:02 435.225
O/OREOS (USA 219) 01 May 01:36:28 01:40:57 63° 253° (WSW) 01:45:22 437.305
BEESAT 01 May 01:36:41 01:41:00 36° 71° (ENE) 01:45:20 436.000
GONETS M04 01 May 01:39:34 01:48:09 54° 281° (WNW) 01:56:48
CUSAT 1 01 May 01:42:55 01:49:36 39° 76° (ENE) 01:56:58 437.405
Oscar 19 01 May 01:55:27 02:00:35 57° 101° (E) 02:05:40 437.125/150
AIST 1 01 May 01:57:39 01:59:56 14° 288° (WNW) 02:02:14
PCSat 01 May 01:59:23 02:04:45 61° 247° (WSW) 02:10:04 145.827
TISAT 1 01 May 02:02:48 02:05:46 18° 265° (W) 02:08:46 437.305
BUGSAT 1 01 May 02:05:35 02:07:05 12° 295° (WNW) 02:08:34 437.445
DANDE 01 May 02:06:31 02:12:10 29° 75° (ENE) 02:18:48 436.750
JAS-2 01 May 02:17:20 02:25:02 67° 287° (WNW) 02:32:45 435.910
ITUPSAT 1 01 May 02:29:52 02:34:34 62° 259° (WSW) 02:39:18 437.325
RS-15 01 May 02:35:21 02:41:50 16° 355° (N) 02:48:28 29.354- 29.394
KKS-1 01 May 02:38:58 02:42:09 19° 67° (ENE) 02:45:20 437.445
SWISSCUBE 01 May 02:40:43 02:45:12 41° 261° (W) 02:49:42 437.505
STARS 01 May 03:01:28 03:04:22 17° 67° (ENE) 03:07:18 437.465
ITAMSAT 1 01 May 03:09:30 03:14:29 46° 100° (E) 03:19:27 435.822/435.867
Cosmos 2499 01 May 03:11:45 03:16:45 20° 290° (WNW) 03:21:45 435.465 / 435.565
Gurwin Techsat 1B 01 May 03:12:41 03:17:58 66° 286° (WNW) 03:23:13 435.225
BEESAT 01 May 03:15:20 03:18:51 20° 265° (W) 03:22:23 436.000
BEESAT 3 01 May 03:15:43 03:18:49 21° 51° (NE) 03:21:53 437.485
BEESAT 2 01 May 03:19:40 03:21:59 15° 48° (NE) 03:24:18 435.950
CUSAT 1 01 May 03:24:57 03:31:40 41° 268° (W) 03:39:03 437.405
Oscar 19 01 May 03:36:14 03:39:23 16° 296° (WNW) 03:42:31 437.125/150
DANDE 01 May 03:48:40 03:55:02 50° 266° (W) 04:02:42 436.750
MOZHAYETS 4 01 May 04:02:29 04:07:04 83° 256° (WSW) 04:11:39
JAS-2 01 May 04:05:35 04:08:40 13° 304° (NW) 04:11:46 435.910
CUBESAT XI-V 01 May 04:08:46 04:10:05 11° 64° (ENE) 04:11:25 437.345
AO-7 01 May 04:11:10 04:19:18 55° 103° (ESE) 04:27:26 29.400- 29.500
KKS-1 01 May 04:14:21 04:18:26 35° 262° (W) 04:22:34 437.445
STARS 01 May 04:36:16 04:40:25 39° 262° (W) 04:44:35 437.465
ITAMSAT 1 01 May 04:49:57 04:53:34 20° 295° (WNW) 04:57:13 435.822/435.867
RS-15 01 May 04:51:25 05:00:55 25° 31° (NNE) 05:10:27 29.354- 29.394
BEESAT 3 01 May 04:53:06 04:56:30 28° 247° (WSW) 04:59:53 437.485
BEESAT 2 01 May 04:56:15 05:00:05 47° 244° (WSW) 05:03:53 435.950
HORYU 2 01 May 05:34:44 05:39:09 80° 284° (WNW) 05:43:33 437.375
CUBESAT XI-V 01 May 05:42:18 05:46:52 67° 259° (W) 05:51:27 437.345
NOAA 18 01 May 06:00:31 06:04:59 25° 96° (E) 06:09:26 137.9125
CUTE-I 01 May 06:04:10 06:08:04 20° 94° (E) 06:11:57 437.470
AO-7 01 May 06:04:35 06:11:38 32° 300° (WNW) 06:18:41 29.400- 29.500
YUBILEINY 01 May 06:08:38 06:17:17 64° 80° (E) 06:25:54 435.215
AIST 2 01 May 06:12:02 06:16:11 70° 60° (ENE) 06:20:17 435.215
STRAND 1 01 May 06:14:57 06:18:59 24° 67° (ENE) 06:23:01 437.568
GOMX 1 01 May 06:25:36 06:29:03 17° 91° (E) 06:32:25 467.674
LilacSat-2 01 May 06:33:46 06:37:15 34° 98° (E) 06:40:42 437.200
BRITE-PL 01 May 06:40:37 06:46:12 52° 99° (E) 06:51:37 437.365/2234.400
Cubesat XI-IV 01 May 06:46:56 06:52:09 54° 101° (E) 06:57:20 437.490
Cosmos 2491 01 May 06:47:35 06:56:14 65° 92° (E) 07:04:57 435.465 / 435.565
NOAA 15 01 May 06:51:44 06:57:05 88° 282° (WNW) 07:02:24 137.62
Cosmos 2504 01 May 06:57:57 07:04:40 33° 75° (ENE) 07:11:45 435.465 / 435.565
RS-15 01 May 07:03:38 07:16:00 74° 58° (ENE) 07:28:15 29.354- 29.394
SO-50 01 May 07:17:25 07:22:16 64° 117° (ESE) 07:27:09 436.795
ISS 01 May 07:32:35 07:35:48 66° 136° (SE) 07:39:02 145.825
NOAA 18 01 May 07:40:42 07:45:40 37° 291° (WNW) 07:50:37 137.9125
CUTE-I 01 May 07:43:15 07:48:15 43° 289° (WNW) 07:53:15 437.470
M-CUBED/EXP-1 PRIME 01 May 07:49:21 07:53:19 80° 107° (ESE) 07:56:55 437.505
STRAND 1 01 May 07:53:17 07:57:56 35° 262° (W) 08:02:36 437.568
PRISM 01 May 07:55:24 07:59:18 48° 74° (ENE) 08:03:15 437.425
CANX-2 01 May 07:56:11 07:59:13 19° 94° (E) 08:02:15 2200.000
GOMX 1 01 May 08:02:07 08:07:27 54° 287° (WNW) 08:12:31 467.674
YUBILEINY 01 May 08:06:49 08:13:17 24° 278° (W) 08:19:47 435.215
DOVE 4 01 May 08:07:17 08:12:28 87° 102° (ESE) 08:17:19 437.250
LilacSat-2 01 May 08:09:15 08:11:14 14° 292° (WNW) 08:13:13 437.200
AUBIESAT-1 01 May 08:09:41 08:13:33 69° 289° (WNW) 08:17:07 437.475
BRITE-PL 01 May 08:20:02 08:24:11 21° 294° (WNW) 08:28:18 437.365/2234.400
Cubesat XI-IV 01 May 08:28:18 08:31:45 18° 296° (WNW) 08:35:11 437.490
HO-68 01 May 08:28:28 08:35:20 48° 100° (E) 08:42:10 435.675
CUTE 1.7 + AOD 2 01 May 08:28:33 08:32:33 40° 99° (E) 08:36:31 437.475
CUBEBUG 2 01 May 08:28:39 08:30:02 11° 91° (E) 08:31:24 437.445
NOAA 15 01 May 08:35:16 08:36:01 10° 300° (WNW) 08:36:45 137.62
Cosmos 2491 01 May 08:46:47 08:53:41 25° 291° (WNW) 09:00:39 435.465 / 435.565
Cosmos 2504 01 May 08:50:58 08:58:04 44° 270° (W) 09:05:38 435.465 / 435.565
SEEDS 01 May 08:58:54 09:03:05 69° 102° (ESE) 09:07:15 437.485
ZACube-1 01 May 08:59:38 09:01:00 11° 91° (E) 09:02:22 437.345
SO-50 01 May 08:59:58 09:03:11 17° 314° (NW) 09:06:25 436.795
CINEMA 3 01 May 09:03:51 09:08:30 75° 284° (WNW) 09:12:54 145.822/145.860
COMPASS 1 01 May 09:05:34 09:09:40 57° 100° (E) 09:13:46 437.405
ISS 01 May 09:10:26 09:12:33 16° 333° (NNW) 09:14:40 145.825
RS-15 01 May 09:17:29 09:27:24 30° 257° (WSW) 09:37:16 29.354- 29.394
UNISAT 6 01 May 09:27:02 09:30:37 22° 69° (ENE) 09:34:10 437.425
CANX-2 01 May 09:31:25 09:35:05 30° 289° (WNW) 09:38:45 2200.000
PHONESAT 2.4 01 May 09:31:27 09:33:39 18° 146° (SE) 09:35:52 2401.200-2431.200
DELFI C3 01 May 09:32:05 09:34:26 15° 93° (E) 09:36:48 145.870
PRISM 01 May 09:33:47 09:34:53 11° 268° (W) 09:35:58 437.425
AAUSAT CUBESAT 2 01 May 09:38:08 09:42:16 70° 283° (WNW) 09:46:23 437.432
Oscar 11 01 May 09:42:56 09:47:06 47° 100° (E) 09:51:15 145.826/435.025
TIGRISAT 01 May 09:44:32 09:48:40 32° 71° (ENE) 09:52:45 435.000
DOVE 4 01 May 09:48:36 09:49:15 10° 299° (WNW) 09:49:54 437.250
FUNcube-1 01 May 09:52:09 09:56:13 48° 100° (E) 10:00:12 145.935
UWE-3 01 May 09:58:48 10:03:04 83° 285° (WNW) 10:07:14 435.000/436.395/437.385
GONETS M04 01 May 10:00:31 10:02:52 11° 60° (ENE) 10:05:11
CUBEBUG 2 01 May 10:02:48 10:06:59 50° 286° (WNW) 10:11:02 437.445
CUTE 1.7 + AOD 2 01 May 10:05:38 10:08:01 15° 293° (WNW) 10:10:24 437.475
ANTELSAT 01 May 10:08:07 10:12:44 62° 75° (ENE) 10:17:18 437.575/2403.000
HUMSAT D 01 May 10:16:13 10:19:24 22° 95° (E) 10:22:34 437.325/437.525
HO-68 01 May 10:16:43 10:22:44 30° 297° (WNW) 10:28:44 435.675
QB50P2 01 May 10:25:26 10:28:20 18° 68° (ENE) 10:31:14 145.880/145.840
POLYITAN 1 01 May 10:27:31 10:30:28 18° 68° (ENE) 10:33:25 437.675
DUCHIFAT 1 01 May 10:27:45 10:30:23 16° 67° (ENE) 10:33:02 145.980
POPSAT HIP 1 01 May 10:30:28 10:33:30 19° 68° (ENE) 10:36:33 437.405
ZACube-1 01 May 10:33:32 10:37:35 47° 286° (WNW) 10:41:33 437.345
QB50P1 01 May 10:33:40 10:36:53 21° 69° (ENE) 10:40:06 145.935-145.965
COMPASS 1 01 May 10:43:51 10:44:43 11° 295° (WNW) 10:45:34 437.405
UNISAT 6 01 May 11:02:55 11:07:07 32° 263° (W) 11:11:17 437.425
DELFI C3 01 May 11:05:48 11:09:24 33° 287° (WNW) 11:12:59 145.870
PHONESAT 2.4 01 May 11:07:06 11:10:15 86° 348° (NNW) 11:13:25 2401.200-2431.200
NANOSAT C BR1 01 May 11:08:23 11:12:31 50° 74° (ENE) 11:16:39 145.865
Cosmos 2499 01 May 11:10:12 11:15:14 18° 69° (ENE) 11:20:27 435.465 / 435.565
BUGSAT 1 01 May 11:15:34 11:19:07 27° 70° (ENE) 11:22:42 437.445
50 SAT 01 May 11:17:40 11:19:42 14° 94° (E) 11:21:44 437.505
AISAT 01 May 11:19:51 11:22:41 16° 94° (E) 11:25:30 437.250
Oscar 11 01 May 11:20:41 11:22:47 14° 294° (WNW) 11:24:54 145.826/435.025
TIGRISAT 01 May 11:21:42 11:25:20 22° 265° (W) 11:28:57 435.000
FUNcube-1 01 May 11:30:16 11:32:00 12° 295° (WNW) 11:33:43 145.935
ESTCUBE 1 01 May 11:30:45 11:34:45 30° 97° (E) 11:38:43 437.505/2401.250
ANTELSAT 01 May 11:48:20 11:49:46 11° 269° (W) 11:51:11 437.575/2403.000
HUMSAT D 01 May 11:51:38 11:54:57 24° 290° (WNW) 11:58:15 437.325/437.525
GONETS M04 01 May 11:52:41 12:01:27 69° 81° (E) 12:10:04
QB50P2 01 May 11:59:57 12:03:51 34° 262° (W) 12:07:47 145.880/145.840
CUBEBUG 1 01 May 12:00:07 12:04:23 45° 99° (E) 12:08:36 437.445
DUCHIFAT 1 01 May 12:01:46 12:05:45 38° 262° (W) 12:09:45 145.980
POLYITAN 1 01 May 12:02:05 12:05:59 34° 262° (W) 12:09:55 437.675
AIST 1 01 May 12:04:40 12:09:04 73° 266° (W) 12:13:27
POPSAT HIP 1 01 May 12:05:12 12:09:02 32° 262° (W) 12:12:55 437.405
QB50P1 01 May 12:08:45 12:12:28 29° 263° (W) 12:16:13 145.935-145.965
VELOX 1 01 May 12:22:58 12:27:28 84° 103° (ESE) 12:31:55 145.980
DX 1 01 May 12:25:29 12:29:54 80° 104° (ESE) 12:34:16 434.975-435.025
JAS-2 01 May 12:27:07 12:32:34 43° 68° (ENE) 12:38:42 435.910
UKube-1 01 May 12:34:57 12:39:19 83° 104° (ESE) 12:43:38 .
AO-85 01 May 12:38:03 12:43:20 54° 115° (ESE) 12:48:38 145.980
PHONESAT 2.4 01 May 12:44:19 12:47:19 38° 357° (N) 12:50:19 2401.200-2431.200
NANOSAT C BR1 01 May 12:46:59 12:48:29 12° 268° (W) 12:50:01 145.865
50 SAT 01 May 12:50:21 12:53:33 29° 288° (WNW) 12:56:44 437.505
BUGSAT 1 01 May 12:51:09 12:54:26 22° 265° (W) 12:57:45 437.445
Gurwin Techsat 1B 01 May 12:53:35 12:57:05 18° 64° (ENE) 13:00:34 435.225
AISAT 01 May 12:55:07 12:59:17 39° 288° (WNW) 13:03:26 437.250
Cosmos 2499 01 May 13:01:15 13:09:00 79° 265° (W) 13:17:23 435.465 / 435.565
SPROUT 01 May 13:07:50 13:12:09 80° 284° (WNW) 13:16:25 437.525
ESTCUBE 1 01 May 13:07:51 13:11:22 23° 291° (WNW) 13:14:53 437.505/2401.250
Oscar 19 01 May 13:09:42 13:14:47 64° 74° (ENE) 13:19:56 437.125/150
AO-7 01 May 13:21:50 13:24:17 12° 48° (NE) 13:26:43 29.400- 29.500
CUBEBUG 1 01 May 13:37:42 13:40:15 15° 294° (WNW) 13:42:49 437.445
BEESAT 01 May 13:41:56 13:42:54 11° 91° (E) 13:43:51 436.000
TISAT 1 01 May 13:47:40 13:51:54 82° 102° (ESE) 13:56:06 437.305
GONETS M04 01 May 13:51:09 13:57:21 22° 279° (W) 14:03:32
ISS 01 May 14:02:34 14:05:28 28° 33° (NNE) 14:08:21 145.825
O/OREOS (USA 219) 01 May 14:08:09 14:11:28 20° 101° (E) 14:14:47 437.305
JAS-2 01 May 14:13:07 14:17:51 26° 268° (W) 14:23:04 435.910
AO-85 01 May 14:19:51 14:24:09 23° 312° (NW) 14:28:25 145.980
PHONESAT 2.4 01 May 14:21:22 14:24:29 55° 14° (NNE) 14:27:36 2401.200-2431.200
ITAMSAT 1 01 May 14:24:59 14:30:01 55° 73° (ENE) 14:35:05 435.822/435.867
Gurwin Techsat 1B 01 May 14:31:24 14:36:34 53° 260° (W) 14:41:46 435.225
ITUPSAT 1 01 May 14:32:52 14:37:21 40° 99° (E) 14:41:49 437.325
SWISSCUBE 01 May 14:42:57 14:47:40 59° 101° (E) 14:52:21 437.505
CUSAT 1 01 May 14:46:41 14:49:13 21° 87° (E) 14:52:14 437.405
Oscar 19 01 May 14:52:10 14:54:31 13° 269° (W) 14:56:52 437.125/150
PCSat 01 May 14:56:20 15:00:37 24° 107° (ESE) 15:04:55 145.827
Cosmos 2499 01 May 14:58:28 15:00:57 12° 281° (W) 15:03:29 435.465 / 435.565
AO-7 01 May 15:07:15 15:15:20 60° 67° (ENE) 15:23:25 29.400- 29.500
BEESAT 01 May 15:16:21 15:21:05 67° 285° (WNW) 15:25:47 436.000
DANDE 01 May 15:17:28 15:18:51 13° 87° (E) 15:20:20 436.750
ISS 01 May 15:39:06 15:41:51 25° 229° (SW) 15:44:34 145.825
O/OREOS (USA 219) 01 May 15:46:25 15:50:36 34° 296° (WNW) 15:54:48 437.305
SO-50 01 May 15:51:46 15:55:55 29° 51° (NE) 15:59:55 436.795
PHONESAT 2.4 01 May 15:58:23 16:01:17 34° 209° (SSW) 16:04:12 2401.200-2431.200
MOZHAYETS 4 01 May 16:00:23 16:04:16 27° 96° (E) 16:08:08
ITAMSAT 1 01 May 16:06:50 16:09:48 15° 267° (W) 16:12:45 435.822/435.867
KKS-1 01 May 16:07:18 16:11:40 51° 100° (E) 16:16:00 437.445
ITUPSAT 1 01 May 16:11:32 16:14:52 19° 294° (WNW) 16:18:14 437.325
SWISSCUBE 01 May 16:22:38 16:24:56 14° 296° (WNW) 16:27:13 437.505
STARS 01 May 16:27:53 16:32:07 43° 100° (E) 16:36:17 437.465
CUSAT 1 01 May 16:29:22 16:31:25 15° 294° (WNW) 16:33:45 437.405
HORYU 2 01 May 16:29:57 16:34:25 69° 74° (ENE) 16:38:51 437.375
NOAA 15 01 May 16:32:57 16:35:28 14° 62° (ENE) 16:37:59 137.62
PCSat 01 May 16:38:40 16:43:44 40° 303° (WNW) 16:48:51 145.827
DANDE 01 May 17:00:05 17:01:32 13° 292° (WNW) 17:03:07 436.750
AO-7 01 May 17:01:45 17:08:27 27° 264° (W) 17:15:13 29.400- 29.500
Cosmos 2491 01 May 17:01:49 17:09:07 28° 71° (ENE) 17:16:20 435.465 / 435.565
LilacSat-2 01 May 17:14:53 17:16:48 13° 68° (ENE) 17:18:43 437.200
YUBILEINY 01 May 17:16:08 17:19:22 13° 76° (ENE) 17:22:35 435.215
AUBIESAT-1 01 May 17:22:51 17:22:58 10° 58° (ENE) 17:23:04 437.475
CUTE-I 01 May 17:23:31 17:27:57 27° 68° (ENE) 17:32:22 437.470
NOAA 18 01 May 17:24:09 17:29:14 39° 69° (ENE) 17:34:19 137.9125
GOMX 1 01 May 17:31:55 17:34:28 14° 62° (ENE) 17:37:04 467.674
SO-50 01 May 17:32:20 17:36:17 28° 248° (WSW) 17:40:07 436.795
MOZHAYETS 4 01 May 17:37:35 17:41:18 25° 291° (WNW) 17:45:01
CUBESAT XI-V 01 May 17:41:23 17:45:42 36° 97° (E) 17:50:02 437.345
KKS-1 01 May 17:45:33 17:47:46 14° 295° (WNW) 17:49:58 437.445
BRITE-PL 01 May 17:49:02 17:53:26 40° 71° (ENE) 17:58:12 437.365/2234.400
STARS 01 May 18:05:31 18:08:05 15° 294° (WNW) 18:10:38 437.465
Cubesat XI-IV 01 May 18:06:25 18:11:44 70° 74° (ENE) 18:17:02 437.490
NOAA 15 01 May 18:09:21 18:14:35 71° 258° (WSW) 18:19:52 137.62
M-CUBED/EXP-1 PRIME 01 May 18:32:12 18:36:53 69° 70° (ENE) 18:41:34 437.505
BEESAT 3 01 May 18:40:48 18:44:44 84° 119° (ESE) 18:48:42 437.485
